Location: Unspecified
(51.6244°N, 7.4094°E)
Time: 06:41:56
(UTC+02:00)

ISS - Visible Passes

Search period start: 21 September 2018 00:00
Search period end: 01 October 2018 00:00
Orbit: 403 x 408 km, 51.6° (Epoch: 21 September)

Date Brightness Start Highest point End Pass type
(mag) Time Alt. Az. Time Alt. Az. Time Alt. Az.
23 Sep -2.4 21:10:17 10° SSW 21:12:20 24° S 21:12:20 24° S visible
24 Sep -2.2 20:19:04 10° S 20:21:28 19° SE 20:22:55 15° ESE visible
24 Sep -1.7 21:54:16 10° WSW 21:55:36 22° WSW 21:55:36 22° WSW visible
25 Sep -3.5 21:02:33 10° SW 21:05:43 46° SSE 21:06:00 44° SE visible
26 Sep -2.9 20:10:56 10° SW 20:13:56 32° SSE 20:16:18 14° E visible
26 Sep -2.4 21:46:54 10° WSW 21:48:59 35° WSW 21:48:59 35° WSW visible
27 Sep -3.9 20:55:02 10° WSW 20:58:19 69° SSE 20:59:10 45° E visible
27 Sep -0.6 22:31:31 10° W 22:31:50 12° W 22:31:50 12° W visible
28 Sep -3.5 20:03:13 10° SW 20:06:27 52° SSE 20:09:17 13° E visible
28 Sep -2.7 21:39:35 10° W 21:41:57 44° W 21:41:57 44° W visible
29 Sep -3.9 20:47:38 10° W 20:50:57 87° S 20:52:00 40° E visible
29 Sep -0.7 22:24:09 10° W 22:24:40 14° W 22:24:40 14° W visible
30 Sep -3.8 19:55:42 10° WSW 19:59:01 75° SSE 20:02:01 12° E visible
30 Sep -2.9 21:32:12 10° W 21:34:41 48° W 21:34:41 48° W visible
